M I D A S
Marine Information and Data Acquisition System
Tripno 1459 of the Zeeleeuw from 2008-04-16 12:02:27 to 2008-04-16 15:10:35
Back to CruiseResearch ActivitiesStationsMapUnderway DataData graphs

EquipmentUnitsComments
TimeDGPSUTC
LatitudeDGPSDM.mWGS84
LongitudeDGPSDM.mWGS84
SpeedMeteo Stationm/sRelative wind speed
DirectionMeteo StationdegRelative wind direction
TemperatureMeteo Stationdeg CelciusAir temperature
PressureMeteo StationPaAtmospheric pressure
HumidityMeteo Station%Relative humidity
Missing or incorrect values are displayed as -999
Metereological data collected by the RV Zeeleeuw from 2008-04-16 07:38:16 to 2008-04-16 15:16:52
                                                                                    Next 1000 lines
Time Latitude Longitude Speed Direction Temperature Pressure Humidity
2008-04-16 07:38:25 51°13.665 2°55.956 3.3 332 6.2 102260 71
2008-04-16 07:38:31 51°13.665 2°55.956 3.4 337 6.2 102260 71
2008-04-16 07:38:35 51°13.665 2°55.956 3.4 335 6.2 102270 71
2008-04-16 07:38:41 51°13.665 2°55.956 3.2 327 6.2 102270 71
2008-04-16 07:38:46 51°13.665 2°55.956 3.1 331 6.2 102270 71
2008-04-16 07:38:51 51°13.665 2°55.956 2.7 331 6.2 102270 71
2008-04-16 07:38:56 51°13.665 2°55.956 2.8 331 6.2 102260 70
2008-04-16 07:39:01 51°13.664 2°55.956 2.9 322 6.2 102260 70
2008-04-16 07:39:05 51°13.663 2°55.956 3.2 332 6.2 102270 70
2008-04-16 07:39:11 51°13.664 2°55.956 2.7 329 6.2 102270 70
2008-04-16 07:39:15 51°13.664 2°55.956 2.5 322 6.2 102270 71
2008-04-16 07:39:21 51°13.665 2°55.956 3 331 6.2 102270 71
2008-04-16 07:39:26 51°13.665 2°55.956 3.9 336 6.2 102270 71
2008-04-16 07:39:31 51°13.666 2°55.956 3.3 335 6.2 102270 71
2008-04-16 07:39:36 51°13.666 2°55.956 3.2 330 6.2 102270 71
2008-04-16 07:39:41 51°13.666 2°55.956 3 326 6.2 102270 71
2008-04-16 07:39:46 51°13.666 2°55.956 2.1 320 6.2 102270 71
2008-04-16 07:39:51 51°13.666 2°55.956 2.3 38 6.2 102270 71
2008-04-16 07:39:55 51°13.666 2°55.956 1.8 320 6.2 102270 71
2008-04-16 07:40:01 51°13.666 2°55.956 4 318 6.2 102270 71
2008-04-16 07:40:06 51°13.665 2°55.956 2.9 318 6.2 102260 71
2008-04-16 07:40:11 51°13.665 2°55.956 2.8 320 6.2 102260 71
2008-04-16 07:40:16 51°13.665 2°55.956 2.8 330 6.3 102270 72
2008-04-16 07:40:21 51°13.665 2°55.956 2.8 325 6.3 102270 72
2008-04-16 07:40:26 51°13.665 2°55.956 3.1 322 6.3 102270 72
2008-04-16 07:40:30 51°13.665 2°55.956 3.2 322 6.3 102270 72
2008-04-16 07:40:35 51°13.665 2°55.956 3.1 330 6.3 102270 72
2008-04-16 07:40:41 51°13.665 2°55.956 3 340 6.3 102270 72
2008-04-16 07:40:46 51°13.665 2°55.956 3.7 335 6.3 102260 72
2008-04-16 07:40:51 51°13.664 2°55.956 3.5 328 6.3 102260 72
2008-04-16 07:40:55 51°13.664 2°55.956 3 325 6.3 102270 72
2008-04-16 07:41:01 51°13.664 2°55.956 2.1 337 6.3 102270 72
2008-04-16 07:41:06 51°13.664 2°55.956 2.6 343 6.3 102260 71
2008-04-16 07:41:11 51°13.664 2°55.955 2.5 339 6.3 102260 71
2008-04-16 07:41:16 51°13.664 2°55.955 2.3 342 6.3 102270 71
2008-04-16 07:41:21 51°13.664 2°55.955 3 342 6.3 102270 71
2008-04-16 07:41:26 51°13.664 2°55.954 2.6 343 6.3 102270 71
2008-04-16 07:41:31 51°13.665 2°55.953 2.8 328 6.3 102270 71
2008-04-16 07:41:36 51°13.665 2°55.952 2 333 6.3 102270 71
2008-04-16 07:41:41 51°13.665 2°55.95 2.1 335 6.3 102270 71
2008-04-16 07:41:46 51°13.666 2°55.948 1.8 339 6.3 102270 71
2008-04-16 07:41:50 51°13.667 2°55.946 1.2 339 6.3 102270 71
2008-04-16 07:41:56 51°13.668 2°55.943 1.2 330 6.3 102260 71
2008-04-16 07:42:01 51°13.669 2°55.939 1.8 346 6.3 102260 71
2008-04-16 07:42:06 51°13.67 2°55.936 1.4 345 6.3 102270 72
2008-04-16 07:42:11 51°13.671 2°55.932 2 338 6.3 102270 72
2008-04-16 07:42:16 51°13.672 2°55.928 1.7 335 6.3 102270 72
2008-04-16 07:42:21 51°13.674 2°55.923 1.4 335 6.3 102270 72
2008-04-16 07:42:26 51°13.675 2°55.918 1.5 349 6.4 102270 72
2008-04-16 07:42:31 51°13.676 2°55.913 1.7 350 6.4 102270 72
2008-04-16 07:42:36 51°13.677 2°55.907 1.9 353 6.4 102270 72
2008-04-16 07:42:41 51°13.679 2°55.9 2.4 357 6.4 102270 72
2008-04-16 07:42:46 51°13.68 2°55.894 2.4 355 6.4 102270 72
2008-04-16 07:42:51 51°13.681 2°55.887 1.6 357 6.4 102270 72
2008-04-16 07:42:56 51°13.682 2°55.88 1.4 2 6.4 102270 71
2008-04-16 07:43:01 51°13.683 2°55.872 1.5 2 6.4 102270 71
2008-04-16 07:43:06 51°13.683 2°55.865 2.1 360 6.4 102270 71
2008-04-16 07:43:11 51°13.684 2°55.858 1.8 353 6.4 102270 71
2008-04-16 07:43:16 51°13.685 2°55.851 1.6 351 6.4 102270 71
2008-04-16 07:43:21 51°13.685 2°55.844 1.3 355 6.4 102270 71
2008-04-16 07:43:26 51°13.686 2°55.838 1.3 1 6.4 102270 71
2008-04-16 07:43:31 51°13.686 2°55.831 2.1 359 6.4 102270 71
2008-04-16 07:43:36 51°13.686 2°55.824 2.5 11 6.4 102270 71
2008-04-16 07:43:41 51°13.686 2°55.817 2.1 16 6.4 102270 71
2008-04-16 07:43:46 51°13.687 2°55.81 2.5 16 6.4 102270 71
2008-04-16 07:43:51 51°13.687 2°55.803 2.3 10 6.4 102270 71
2008-04-16 07:43:56 51°13.687 2°55.797 2.1 18 6.3 102270 71
2008-04-16 07:44:01 51°13.687 2°55.79 2.5 15 6.3 102270 71
2008-04-16 07:44:06 51°13.687 2°55.785 2.5 18 6.3 102270 71
2008-04-16 07:44:11 51°13.686 2°55.779 2.8 9 6.3 102270 71
2008-04-16 07:44:16 51°13.686 2°55.773 2.7 8 6.3 102260 71
2008-04-16 07:44:21 51°13.686 2°55.769 2.8 11 6.3 102260 71
2008-04-16 07:44:26 51°13.686 2°55.764 2.5 9 6.3 102270 71
2008-04-16 07:44:31 51°13.686 2°55.76 2.3 15 6.3 102270 71
2008-04-16 07:44:36 51°13.686 2°55.757 2.6 3 6.3 102270 71
2008-04-16 07:44:41 51°13.687 2°55.754 2.4 10 6.3 102270 71
2008-04-16 07:44:46 51°13.687 2°55.752 2.7 8 6.4 102270 71
2008-04-16 07:44:51 51°13.687 2°55.75 2.7 359 6.4 102270 71
2008-04-16 07:44:56 51°13.687 2°55.748 3 359 6.4 102260 71
2008-04-16 07:45:01 51°13.686 2°55.747 2.7 14 6.4 102260 71
2008-04-16 07:45:06 51°13.687 2°55.746 2.5 19 6.3 102270 71
2008-04-16 07:45:10 51°13.687 2°55.745 2.7 12 6.3 102270 71
2008-04-16 07:45:15 51°13.687 2°55.744 3.2 19 6.3 102270 71
2008-04-16 07:45:21 51°13.687 2°55.743 2.7 16 6.3 102270 71
2008-04-16 07:45:25 51°13.687 2°55.742 2.7 18 6.4 102260 71
2008-04-16 07:45:30 51°13.688 2°55.742 2.7 24 6.4 102260 71
2008-04-16 07:45:35 51°13.689 2°55.742 3.2 25 6.4 102270 71
2008-04-16 07:45:40 51°13.689 2°55.742 3.1 28 6.4 102270 71
2008-04-16 07:45:45 51°13.691 2°55.742 2.7 24 6.3 102260 71
2008-04-16 07:45:50 51°13.692 2°55.742 2.7 28 6.3 102260 71
2008-04-16 07:45:55 51°13.694 2°55.743 2.4 28 6.4 102270 71
2008-04-16 07:46:00 51°13.695 2°55.743 3.4 33 6.4 102270 71
2008-04-16 07:46:05 51°13.698 2°55.743 3.9 32 6.3 102270 71
2008-04-16 07:46:09 51°13.7 2°55.743 3.2 41 6.3 102270 71
2008-04-16 07:46:14 51°13.703 2°55.743 3.3 42 6.4 102270 71
2008-04-16 07:46:19 51°13.707 2°55.742 2 44 6.4 102270 71
2008-04-16 07:46:24 51°13.711 2°55.739 1.8 36 6.4 102270 70
2008-04-16 07:46:29 51°13.717 2°55.737 1.3 32 6.4 102270 70
2008-04-16 07:46:34 51°13.722 2°55.733 0.9 22 6.3 102270 70
2008-04-16 07:46:39 51°13.727 2°55.728 1.7 33 6.3 102270 70
2008-04-16 07:46:44 51°13.732 2°55.724 2.1 33 6.3 102270 70
2008-04-16 07:46:49 51°13.737 2°55.719 1.7 41 6.3 102270 70
2008-04-16 07:46:54 51°13.742 2°55.714 1.6 40 6.4 102270 70
2008-04-16 07:46:59 51°13.748 2°55.709 1.8 44 6.4 102270 70
2008-04-16 07:47:04 51°13.753 2°55.704 1.8 43 6.4 102270 70
2008-04-16 07:47:09 51°13.759 2°55.698 1.9 41 6.4 102270 70
2008-04-16 07:47:14 51°13.765 2°55.692 1.7 36 6.4 102270 70
2008-04-16 07:47:19 51°13.771 2°55.686 1.8 35 6.4 102270 70
2008-04-16 07:47:24 51°13.777 2°55.68 1.6 36 6.4 102270 70
2008-04-16 07:47:29 51°13.783 2°55.674 1.3 31 6.4 102270 70
2008-04-16 07:47:34 51°13.79 2°55.668 1.3 32 6.4 102270 70
2008-04-16 07:47:38 51°13.796 2°55.663 1.4 32 6.4 102270 70
2008-04-16 07:47:43 51°13.803 2°55.656 1.3 32 6.4 102270 70
2008-04-16 07:47:49 51°13.812 2°55.648 2 34 6.4 102270 70
2008-04-16 07:47:53 51°13.818 2°55.643 1.7 32 6.4 102270 70
2008-04-16 07:47:58 51°13.826 2°55.636 1.6 37 6.4 102270 70
2008-04-16 07:48:03 51°13.834 2°55.629 1.6 39 6.4 102270 70
2008-04-16 07:48:09 51°13.844 2°55.621 1.6 39 6.4 102270 70
2008-04-16 07:48:13 51°13.85 2°55.616 1.6 38 6.4 102270 69
2008-04-16 07:48:18 51°13.859 2°55.609 1.8 37 6.4 102270 69
2008-04-16 07:48:23 51°13.868 2°55.602 1.8 36 6.3 102270 69
2008-04-16 07:48:29 51°13.879 2°55.595 1.6 21 6.3 102270 69
2008-04-16 07:48:34 51°13.889 2°55.589 1.6 33 6.4 102270 69
2008-04-16 07:48:39 51°13.898 2°55.583 2 1 6.4 102270 69
2008-04-16 07:48:45 51°13.909 2°55.574 2.1 5 6.4 102270 70
2008-04-16 07:48:50 51°13.918 2°55.567 2.5 4 6.4 102270 70
2008-04-16 07:48:56 51°13.929 2°55.559 2.3 357 6.4 102270 70
2008-04-16 07:49:01 51°13.939 2°55.552 2.8 348 6.4 102270 70
2008-04-16 07:49:06 51°13.949 2°55.545 2.8 357 6.4 102270 70
2008-04-16 07:49:11 51°13.958 2°55.538 3.1 360 6.4 102270 70
2008-04-16 07:49:16 51°13.968 2°55.531 3.1 1 6.4 102270 70
2008-04-16 07:49:21 51°13.977 2°55.524 2.8 354 6.4 102270 70
2008-04-16 07:49:26 51°13.986 2°55.517 3.2 353 6.4 102270 70
2008-04-16 07:49:31 51°13.995 2°55.511 2.6 4 6.4 102270 70
2008-04-16 07:49:36 51°14.004 2°55.504 2.5 7 6.4 102270 69
2008-04-16 07:49:41 51°14.013 2°55.498 2.4 5 6.4 102270 69
2008-04-16 07:49:46 51°14.021 2°55.491 2.4 7 6.4 102260 69
2008-04-16 07:49:51 51°14.029 2°55.485 2.9 12 6.4 102260 69
2008-04-16 07:49:56 51°14.037 2°55.479 3 15 6.4 102270 69
2008-04-16 07:50:01 51°14.044 2°55.473 2.8 18 6.4 102270 69
2008-04-16 07:50:06 51°14.051 2°55.466 2.9 21 6.4 102260 69
2008-04-16 07:50:11 51°14.058 2°55.46 2.8 28 6.4 102260 69
2008-04-16 07:50:16 51°14.065 2°55.455 3.1 25 6.3 102270 69
2008-04-16 07:50:21 51°14.071 2°55.449 3.1 29 6.3 102270 69
2008-04-16 07:50:26 51°14.078 2°55.444 2.6 30 6.3 102260 70
2008-04-16 07:50:31 51°14.085 2°55.439 2.6 22 6.3 102260 70
2008-04-16 07:50:36 51°14.092 2°55.434 2.8 13 6.4 102270 70
2008-04-16 07:50:41 51°14.098 2°55.429 2.1 29 6.4 102270 70
2008-04-16 07:50:46 51°14.105 2°55.423 2.5 28 6.3 102270 70
2008-04-16 07:50:51 51°14.11 2°55.417 1.1 28 6.3 102270 70
2008-04-16 07:50:56 51°14.117 2°55.411 1.8 18 6.4 102270 70
2008-04-16 07:51:01 51°14.123 2°55.406 2.1 34 6.4 102270 70
2008-04-16 07:51:06 51°14.13 2°55.401 1.9 18 6.3 102270 70
2008-04-16 07:51:11 51°14.136 2°55.395 3.8 11 6.3 102270 70
2008-04-16 07:51:16 51°14.143 2°55.389 3.6 13 6.3 102270 70
2008-04-16 07:51:21 51°14.15 2°55.384 3.2 18 6.3 102270 70
2008-04-16 07:51:26 51°14.157 2°55.378 4.1 17 6.3 102270 70
2008-04-16 07:51:31 51°14.165 2°55.372 3.4 24 6.3 102270 70
2008-04-16 07:51:36 51°14.172 2°55.365 3.2 23 6.3 102270 70
2008-04-16 07:51:41 51°14.179 2°55.358 2.9 24 6.3 102270 70
2008-04-16 07:51:46 51°14.185 2°55.351 3.2 26 6.3 102260 70
2008-04-16 07:51:51 51°14.193 2°55.343 2.9 26 6.3 102260 70
2008-04-16 07:51:56 51°14.199 2°55.335 2.6 28 6.3 102260 70
2008-04-16 07:52:01 51°14.207 2°55.328 2.6 30 6.3 102260 70
2008-04-16 07:52:06 51°14.214 2°55.319 2.6 30 6.3 102270 69
2008-04-16 07:52:11 51°14.221 2°55.311 2.1 24 6.3 102270 69
2008-04-16 07:52:16 51°14.228 2°55.302 2.2 27 6.3 102270 69
2008-04-16 07:52:21 51°14.235 2°55.292 1.7 25 6.3 102270 69
2008-04-16 07:52:26 51°14.242 2°55.282 1.6 28 6.3 102270 69
2008-04-16 07:52:31 51°14.249 2°55.272 0.9 38 6.3 102270 69
2008-04-16 07:52:36 51°14.256 2°55.261 0.8 38 6.3 102260 69
2008-04-16 07:52:41 51°14.263 2°55.25 0.8 32 6.3 102260 69
2008-04-16 07:52:46 51°14.269 2°55.239 0.7 33 6.3 102260 69
2008-04-16 07:52:51 51°14.276 2°55.228 0.7 42 6.3 102260 69
2008-04-16 07:52:56 51°14.283 2°55.216 0.5 40 6.3 102270 69
2008-04-16 07:53:01 51°14.289 2°55.204 0.3 44 6.3 102270 69
2008-04-16 07:53:05 51°14.294 2°55.194 0.2 264 6.3 102270 69
2008-04-16 07:53:10 51°14.301 2°55.182 0.6 36 6.3 102270 69
2008-04-16 07:53:15 51°14.307 2°55.169 1.3 14 6.3 102270 69
2008-04-16 07:53:20 51°14.313 2°55.157 0.3 256 6.3 102270 69
2008-04-16 07:53:25 51°14.319 2°55.144 0.3 33 6.3 102270 70
2008-04-16 07:53:30 51°14.325 2°55.131 1.2 43 6.3 102270 70
2008-04-16 07:53:35 51°14.332 2°55.118 1.2 23 6.4 102260 70
2008-04-16 07:53:40 51°14.338 2°55.104 1.1 35 6.4 102260 70
2008-04-16 07:53:45 51°14.345 2°55.092 1 24 6.4 102260 70
2008-04-16 07:53:50 51°14.352 2°55.078 0.6 37 6.4 102260 70
2008-04-16 07:53:54 51°14.358 2°55.068 0.5 25 6.4 102260 71
2008-04-16 07:54:00 51°14.367 2°55.052 0.3 359 6.4 102260 71
2008-04-16 07:54:05 51°14.375 2°55.04 0.4 353 6.5 102270 71
2008-04-16 07:54:09 51°14.382 2°55.029 0.6 357 6.5 102270 71
2008-04-16 07:54:14 51°14.391 2°55.016 1.1 355 6.5 102270 71
2008-04-16 07:54:19 51°14.399 2°55.002 2.3 352 6.5 102270 71
2008-04-16 07:54:24 51°14.408 2°54.987 2.5 349 6.6 102270 71
2008-04-16 07:54:29 51°14.417 2°54.972 2 356 6.6 102270 71
2008-04-16 07:54:34 51°14.426 2°54.956 1.6 359 6.6 102270 71
2008-04-16 07:54:39 51°14.435 2°54.94 2.3 343 6.6 102270 71
2008-04-16 07:54:44 51°14.444 2°54.923 2.9 344 6.6 102270 70
2008-04-16 07:54:49 51°14.454 2°54.905 2.1 347 6.6 102270 70
2008-04-16 07:54:54 51°14.464 2°54.886 2.8 344 6.6 102260 70
2008-04-16 07:54:58 51°14.471 2°54.87 2.7 344 6.6 102260 70
2008-04-16 07:55:03 51°14.481 2°54.85 2.9 344 6.6 102270 69
2008-04-16 07:55:09 51°14.492 2°54.825 2.1 344 6.6 102270 69
2008-04-16 07:55:13 51°14.499 2°54.808 2 353 6.6 102260 69
2008-04-16 07:55:18 51°14.509 2°54.787 2 349 6.6 102260 69
2008-04-16 07:55:23 51°14.518 2°54.766 2.5 346 6.6 102260 69
2008-04-16 07:55:28 51°14.528 2°54.744 2.3 355 6.6 102260 69
2008-04-16 07:55:33 51°14.539 2°54.724 2.3 349 6.6 102260 69
2008-04-16 07:55:38 51°14.549 2°54.703 2.7 352 6.6 102260 69
2008-04-16 07:55:43 51°14.559 2°54.681 3.3 355 6.6 102270 69
2008-04-16 07:55:48 51°14.57 2°54.661 3 353 6.6 102270 69
2008-04-16 07:55:53 51°14.581 2°54.64 2.7 355 6.5 102260 69
2008-04-16 07:55:58 51°14.592 2°54.619 3.3 356 6.5 102260 69
2008-04-16 07:56:02 51°14.6 2°54.603 2.6 353 6.5 102260 69
2008-04-16 07:56:08 51°14.613 2°54.578 2.7 354 6.5 102260 69
2008-04-16 07:56:13 51°14.624 2°54.558 2.8 357 6.5 102260 68
2008-04-16 07:56:17 51°14.633 2°54.541 2.7 354 6.5 102260 68
2008-04-16 07:56:22 51°14.643 2°54.519 2.2 355 6.4 102260 68
2008-04-16 07:56:28 51°14.655 2°54.494 2.1 354 6.4 102260 68
2008-04-16 07:56:33 51°14.666 2°54.472 2.2 357 6.4 102260 68
2008-04-16 07:56:37 51°14.674 2°54.456 2.8 1 6.4 102260 68
2008-04-16 07:56:43 51°14.688 2°54.431 2.6 358 6.4 102260 68
2008-04-16 07:56:48 51°14.698 2°54.41 2.5 2 6.4 102260 68
2008-04-16 07:56:53 51°14.709 2°54.388 2.8 1 6.4 102260 69
2008-04-16 07:56:57 51°14.716 2°54.371 2.4 352 6.4 102260 69
2008-04-16 07:57:02 51°14.725 2°54.348 2.3 349 6.3 102260 69
2008-04-16 07:57:07 51°14.733 2°54.325 1.8 352 6.3 102260 69
2008-04-16 07:57:12 51°14.741 2°54.301 1.6 350 6.3 102260 69
2008-04-16 07:57:18 51°14.75 2°54.273 1.3 345 6.3 102260 69
2008-04-16 07:57:23 51°14.757 2°54.248 1.3 341 6.3 102260 69
2008-04-16 07:57:28 51°14.763 2°54.224 1.3 334 6.3 102260 69
2008-04-16 07:57:33 51°14.769 2°54.199 2 329 6.3 102260 70
2008-04-16 07:57:37 51°14.774 2°54.179 2 318 6.3 102260 70
2008-04-16 07:57:42 51°14.779 2°54.154 2.3 19 6.3 102260 70
2008-04-16 07:57:47 51°14.783 2°54.129 2.2 30 6.3 102260 70
2008-04-16 07:57:52 51°14.787 2°54.104 2.6 18 6.3 102260 70
2008-04-16 07:57:57 51°14.791 2°54.078 2.3 317 6.3 102260 70
2008-04-16 07:58:02 51°14.795 2°54.052 2.4 21 6.3 102260 70
2008-04-16 07:58:08 51°14.8 2°54.021 2.8 34 6.3 102260 70
2008-04-16 07:58:13 51°14.804 2°53.996 2.5 25 6.3 102260 70
2008-04-16 07:58:17 51°14.808 2°53.975 3.4 39 6.3 102260 70
2008-04-16 07:58:22 51°14.811 2°53.949 2.9 20 6.3 102260 70
2008-04-16 07:58:28 51°14.816 2°53.919 3.3 36 6.3 102260 70
2008-04-16 07:58:33 51°14.82 2°53.893 2.6 24 6.3 102260 71
2008-04-16 07:58:37 51°14.822 2°53.872 4.3 36 6.3 102260 71
2008-04-16 07:58:42 51°14.826 2°53.846 3.3 27 6.3 102260 71
2008-04-16 07:58:48 51°14.83 2°53.815 3.3 33 6.3 102260 71
2008-04-16 07:58:53 51°14.834 2°53.789 4.2 21 6.3 102260 71
2008-04-16 07:58:57 51°14.836 2°53.768 4 32 6.3 102260 71
2008-04-16 07:59:02 51°14.84 2°53.742 3.9 21 6.3 102260 71
2008-04-16 07:59:08 51°14.844 2°53.711 3.1 235 6.3 102260 71
2008-04-16 07:59:13 51°14.846 2°53.685 2.9 26 6.3 102260 71
2008-04-16 07:59:17 51°14.848 2°53.664 4.1 237 6.3 102260 71
2008-04-16 07:59:22 51°14.85 2°53.638 4.2 27 6.4 102260 71
2008-04-16 07:59:28 51°14.853 2°53.606 4.3 239 6.4 102260 71
2008-04-16 07:59:33 51°14.856 2°53.58 4.3 27 6.4 102260 71
2008-04-16 07:59:37 51°14.858 2°53.559 3.2 34 6.4 102260 71
2008-04-16 07:59:42 51°14.861 2°53.533 3.3 26 6.4 102260 70
2008-04-16 07:59:48 51°14.865 2°53.502 3.3 234 6.4 102260 70
2008-04-16 07:59:53 51°14.868 2°53.475 4.1 19 6.4 102260 70
2008-04-16 07:59:57 51°14.87 2°53.455 3.6 242 6.4 102260 70
2008-04-16 08:00:02 51°14.873 2°53.429 2.9 26 6.4 102260 70
2008-04-16 08:00:08 51°14.878 2°53.397 3.5 303 6.4 102260 70
2008-04-16 08:00:13 51°14.881 2°53.372 3.5 25 6.4 102260 70
2008-04-16 08:00:17 51°14.884 2°53.351 4.2 32 6.4 102260 70
2008-04-16 08:00:22 51°14.887 2°53.325 3.3 18 6.4 102260 70
2008-04-16 08:00:27 51°14.89 2°53.299 3.5 32 6.4 102260 70
2008-04-16 08:00:32 51°14.893 2°53.273 3.8 27 6.4 102260 71
2008-04-16 08:00:37 51°14.894 2°53.247 5.1 241 6.4 102260 71
2008-04-16 08:00:42 51°14.895 2°53.22 3.3 27 6.5 102260 70
2008-04-16 08:00:47 51°14.895 2°53.194 5.6 241 6.5 102260 70
2008-04-16 08:00:52 51°14.895 2°53.168 5.6 24 6.5 102250 70
2008-04-16 08:00:57 51°14.894 2°53.142 5.2 30 6.5 102250 70
2008-04-16 08:01:03 51°14.892 2°53.111 3.9 20 6.5 102260 70
2008-04-16 08:01:08 51°14.89 2°53.085 5 234 6.5 102260 70
2008-04-16 08:01:13 51°14.888 2°53.059 5.1 28 6.5 102250 70
2008-04-16 08:01:17 51°14.886 2°53.038 4.5 238 6.5 102250 70
2008-04-16 08:01:22 51°14.884 2°53.012 6.6 27 6.5 102260 70
2008-04-16 08:01:28 51°14.882 2°52.98 4.4 240 6.5 102260 70
2008-04-16 08:01:32 51°14.881 2°52.959 5.3 27 6.5 102260 69
2008-04-16 08:01:37 51°14.881 2°52.933 3.7 242 6.5 102260 69
2008-04-16 08:01:41 51°14.882 2°52.912 4.8 26 6.5 102250 70
2008-04-16 08:01:47 51°14.883 2°52.88 4.1 243 6.5 102250 70
2008-04-16 08:01:52 51°14.885 2°52.854 3.8 19 6.5 102250 69
2008-04-16 08:01:56 51°14.886 2°52.832 2.8 249 6.5 102250 69
2008-04-16 08:02:01 51°14.888 2°52.806 3.4 19 6.5 102250 69
2008-04-16 08:02:06 51°14.89 2°52.78 2.7 305 6.5 102250 69
2008-04-16 08:02:12 51°14.892 2°52.748 3.2 18 6.5 102260 69
2008-04-16 08:02:17 51°14.893 2°52.722 3.4 245 6.5 102260 69
2008-04-16 08:02:21 51°14.895 2°52.701 3.4 19 6.5 102250 69
2008-04-16 08:02:26 51°14.896 2°52.674 3.4 242 6.5 102250 69
2008-04-16 08:02:31 51°14.898 2°52.647 3.3 243 6.5 102260 69
2008-04-16 08:02:37 51°14.899 2°52.616 5 236 6.5 102260 69
2008-04-16 08:02:41 51°14.9 2°52.595 5.1 24 6.6 102260 69
2008-04-16 08:02:47 51°14.902 2°52.563 4.2 240 6.6 102260 69
2008-04-16 08:02:52 51°14.903 2°52.536 5.1 24 6.6 102260 69
2008-04-16 08:02:56 51°14.904 2°52.515 4.4 242 6.6 102260 69
2008-04-16 08:03:01 51°14.906 2°52.489 3.6 25 6.6 102260 69
2008-04-16 08:03:07 51°14.907 2°52.457 3.1 242 6.6 102260 69
2008-04-16 08:03:12 51°14.909 2°52.431 3.4 22 6.6 102260 69
2008-04-16 08:03:16 51°14.909 2°52.41 4.8 243 6.6 102260 69
2008-04-16 08:03:21 51°14.91 2°52.383 5 20 6.6 102260 69
2008-04-16 08:03:27 51°14.91 2°52.351 4.5 237 6.6 102260 69
2008-04-16 08:03:32 51°14.911 2°52.325 5.1 24 6.6 102260 68
2008-04-16 08:03:36 51°14.911 2°52.304 3.8 240 6.6 102260 68
2008-04-16 08:03:41 51°14.912 2°52.277 4 22 6.6 102260 68
2008-04-16 08:03:47 51°14.913 2°52.245 4.2 254 6.6 102260 68
2008-04-16 08:03:52 51°14.913 2°52.219 3.7 249 6.6 102260 68
2008-04-16 08:03:56 51°14.914 2°52.198 4 243 6.6 102260 68
2008-04-16 08:04:01 51°14.914 2°52.171 4.8 26 6.6 102250 68
2008-04-16 08:04:07 51°14.914 2°52.139 4.3 248 6.6 102250 68
2008-04-16 08:04:12 51°14.914 2°52.113 4.3 250 6.6 102250 68
2008-04-16 08:04:16 51°14.914 2°52.092 5.1 237 6.6 102250 68
2008-04-16 08:04:21 51°14.915 2°52.065 4.6 26 6.6 102250 68
2008-04-16 08:04:26 51°14.915 2°52.038 4.5 239 6.6 102250 68
2008-04-16 08:04:32 51°14.915 2°52.007 4.5 19 6.6 102250 68
2008-04-16 08:04:36 51°14.915 2°51.985 4.7 241 6.6 102250 68
2008-04-16 08:04:41 51°14.915 2°51.959 4.2 26 6.6 102260 68
2008-04-16 08:04:47 51°14.915 2°51.927 4.8 239 6.6 102260 68
2008-04-16 08:04:51 51°14.914 2°51.906 5.6 21 6.7 102250 68
2008-04-16 08:04:56 51°14.914 2°51.879 4.5 239 6.7 102250 68
2008-04-16 08:05:01 51°14.913 2°51.853 4.4 26 6.7 102260 68
2008-04-16 08:05:07 51°14.912 2°51.821 4.6 238 6.7 102260 68
2008-04-16 08:05:12 51°14.91 2°51.795 5.4 24 6.7 102250 68
2008-04-16 08:05:17 51°14.908 2°51.769 7.3 238 6.7 102250 68
2008-04-16 08:05:21 51°14.906 2°51.749 6.9 26 6.7 102250 68
2008-04-16 08:05:27 51°14.902 2°51.718 4.8 240 6.7 102250 68
2008-04-16 08:05:32 51°14.898 2°51.692 4.9 25 6.7 102250 68
2008-04-16 08:05:36 51°14.895 2°51.671 5.5 243 6.7 102250 68
2008-04-16 08:05:41 51°14.892 2°51.646 6.6 26 6.7 102250 68
2008-04-16 08:05:47 51°14.887 2°51.615 5.3 242 6.7 102250 68
2008-04-16 08:05:52 51°14.883 2°51.59 6.4 24 6.7 102250 68
2008-04-16 08:05:56 51°14.881 2°51.569 4.3 35 6.7 102250 68
2008-04-16 08:06:01 51°14.877 2°51.543 5.4 27 6.7 102240 67
2008-04-16 08:06:07 51°14.873 2°51.512 5.9 32 6.7 102240 67
2008-04-16 08:06:12 51°14.87 2°51.486 5.5 26 6.7 102250 67
2008-04-16 08:06:16 51°14.866 2°51.466 4.6 33 6.7 102250 67
2008-04-16 08:06:21 51°14.864 2°51.44 6.6 26 6.7 102260 67
2008-04-16 08:06:26 51°14.86 2°51.414 4.7 235 6.7 102260 67
2008-04-16 08:06:32 51°14.856 2°51.384 6 19 6.7 102250 67
2008-04-16 08:06:36 51°14.853 2°51.363 5.3 37 6.7 102250 67
2008-04-16 08:06:41 51°14.85 2°51.337 5.5 28 6.7 102250 67
2008-04-16 08:06:46 51°14.846 2°51.312 6.8 32 6.7 102250 67
2008-04-16 08:06:51 51°14.843 2°51.286 7.6 19 6.7 102250 67
2008-04-16 08:06:56 51°14.839 2°51.26 5.7 237 6.7 102250 67
2008-04-16 08:07:01 51°14.836 2°51.234 6.3 24 6.7 102250 68
2008-04-16 08:07:07 51°14.831 2°51.204 6.5 307 6.7 102250 68
2008-04-16 08:07:12 51°14.827 2°51.178 6.4 25 6.7 102240 68
2008-04-16 08:07:17 51°14.822 2°51.154 4.7 232 6.7 102240 68
2008-04-16 08:07:21 51°14.819 2°51.134 5.8 28 6.7 102250 67
2008-04-16 08:07:27 51°14.812 2°51.104 5.3 235 6.7 102250 67
2008-04-16 08:07:31 51°14.808 2°51.084 5 22 6.7 102250 67
2008-04-16 08:07:37 51°14.802 2°51.054 7.1 239 6.7 102250 67
2008-04-16 08:07:41 51°14.799 2°51.034 7.1 22 6.6 102250 67
2008-04-16 08:07:46 51°14.795 2°51.009 7.5 239 6.6 102250 67
2008-04-16 08:07:51 51°14.79 2°50.985 5.4 25 6.6 102240 67
2008-04-16 08:07:56 51°14.783 2°50.961 5.7 33 6.6 102240 67
2008-04-16 08:08:01 51°14.777 2°50.937 7.1 26 6.6 102250 67
2008-04-16 08:08:07 51°14.769 2°50.908 7 240 6.6 102250 67
2008-04-16 08:08:12 51°14.763 2°50.884 5.2 25 6.6 102250 67
2008-04-16 08:08:16 51°14.758 2°50.865 6.4 237 6.6 102250 67
2008-04-16 08:08:21 51°14.752 2°50.841 6.3 20 6.6 102250 67
2008-04-16 08:08:26 51°14.746 2°50.817 7.5 33 6.6 102250 67
2008-04-16 08:08:32 51°14.736 2°50.79 6 27 6.6 102240 67
2008-04-16 08:08:37 51°14.729 2°50.769 6.4 235 6.6 102240 67
2008-04-16 08:08:41 51°14.721 2°50.756 6.4 19 6.6 102240 68
2008-04-16 08:08:46 51°14.713 2°50.741 8.5 240 6.6 102240 68
2008-04-16 08:08:52 51°14.703 2°50.726 7.9 22 6.6 102240 67
2008-04-16 08:08:56 51°14.697 2°50.717 8.3 240 6.6 102240 67
2008-04-16 08:09:01 51°14.688 2°50.707 6.6 20 6.6 102240 67
2008-04-16 08:09:07 51°14.68 2°50.696 8.2 238 6.6 102240 67
2008-04-16 08:09:12 51°14.672 2°50.688 6.2 28 6.6 102240 67
2008-04-16 08:09:16 51°14.667 2°50.682 6.1 239 6.6 102240 67
2008-04-16 08:09:21 51°14.66 2°50.675 7.4 21 6.6 102240 67
2008-04-16 08:09:27 51°14.652 2°50.668 6.9 240 6.6 102240 67
2008-04-16 08:09:32 51°14.646 2°50.664 7 19 6.6 102240 67
2008-04-16 08:09:37 51°14.64 2°50.659 6.8 243 6.6 102240 67
2008-04-16 08:09:41 51°14.636 2°50.655 5.5 19 6.6 102240 67
2008-04-16 08:09:47 51°14.63 2°50.649 5 242 6.6 102240 67
2008-04-16 08:09:52 51°14.624 2°50.645 6.3 26 6.6 102240 67
2008-04-16 08:09:56 51°14.621 2°50.641 7 245 6.6 102240 67
2008-04-16 08:10:01 51°14.616 2°50.637 5.3 247 6.6 102250 67
2008-04-16 08:10:06 51°14.612 2°50.632 6.7 252 6.6 102250 67
2008-04-16 08:10:11 51°14.608 2°50.627 6.8 19 6.6 102250 67
2008-04-16 08:10:16 51°14.604 2°50.622 6.2 255 6.6 102250 67
2008-04-16 08:10:22 51°14.6 2°50.616 7.4 255 6.6 102250 67
2008-04-16 08:10:27 51°14.598 2°50.61 5.3 259 6.6 102250 67
2008-04-16 08:10:32 51°14.595 2°50.604 4.6 260 6.6 102250 68
2008-04-16 08:10:36 51°14.593 2°50.6 4.6 260 6.6 102250 68
2008-04-16 08:10:41 51°14.591 2°50.595 5.5 260 6.6 102240 68
2008-04-16 08:10:47 51°14.588 2°50.588 3.2 265 6.6 102240 68
2008-04-16 08:10:52 51°14.587 2°50.583 3.2 264 6.7 102250 68
2008-04-16 08:10:56 51°14.585 2°50.578 5.3 258 6.7 102250 68
2008-04-16 08:11:01 51°14.583 2°50.573 4.1 261 6.7 102250 68
2008-04-16 08:11:06 51°14.581 2°50.568 2.8 262 6.7 102250 68
2008-04-16 08:11:12 51°14.579 2°50.561 3.2 262 6.7 102250 68
2008-04-16 08:11:17 51°14.577 2°50.555 3.9 262 6.7 102250 68
2008-04-16 08:11:21 51°14.576 2°50.551 4.2 263 6.7 102250 68
2008-04-16 08:11:26 51°14.574 2°50.546 4.1 262 6.7 102250 68
2008-04-16 08:11:31 51°14.572 2°50.54 3.9 259 6.7 102250 68
2008-04-16 08:11:37 51°14.57 2°50.534 4.4 262 6.7 102250 68
2008-04-16 08:11:41 51°14.568 2°50.53 3.6 262 6.7 102250 68
2008-04-16 08:11:46 51°14.566 2°50.525 4.8 255 6.7 102250 68
2008-04-16 08:11:51 51°14.565 2°50.519 5.3 254 6.7 102250 68
2008-04-16 08:11:57 51°14.562 2°50.514 5.2 256 6.7 102250 68
2008-04-16 08:12:01 51°14.561 2°50.509 5.3 257 6.7 102250 68
2008-04-16 08:12:06 51°14.559 2°50.504 6.2 254 6.7 102250 68
2008-04-16 08:12:12 51°14.557 2°50.498 5.8 253 6.7 102250 68
2008-04-16 08:12:16 51°14.555 2°50.493 7.7 251 6.7 102250 68
2008-04-16 08:12:21 51°14.553 2°50.488 7.1 248 6.7 102250 68
2008-04-16 08:12:27 51°14.551 2°50.483 8.6 253 6.7 102250 68
2008-04-16 08:12:31 51°14.549 2°50.478 6.5 253 6.8 102250 68
2008-04-16 08:12:36 51°14.547 2°50.473 8.6 255 6.8 102250 68
2008-04-16 08:12:41 51°14.546 2°50.468 6.3 256 6.8 102250 68
2008-04-16 08:12:47 51°14.544 2°50.461 7.6 252 6.8 102250 68
2008-04-16 08:12:52 51°14.542 2°50.456 5.9 252 6.8 102240 68
2008-04-16 08:12:56 51°14.541 2°50.452 7.9 256 6.8 102240 68
2008-04-16 08:13:01 51°14.539 2°50.446 8.1 258 6.8 102240 68
2008-04-16 08:13:07 51°14.537 2°50.44 6.3 255 6.8 102240 68
2008-04-16 08:13:12 51°14.535 2°50.434 7.8 256 6.8 102240 68
2008-04-16 08:13:16 51°14.534 2°50.43 7.1 257 6.8 102240 68
2008-04-16 08:13:21 51°14.532 2°50.425 9.1 256 6.8 102240 68
2008-04-16 08:13:26 51°14.53 2°50.419 8.3 257 6.8 102240 68
2008-04-16 08:13:32 51°14.528 2°50.413 8.6 256 6.8 102240 68
2008-04-16 08:13:36 51°14.527 2°50.409 8.8 256 6.8 102240 68
2008-04-16 08:13:41 51°14.525 2°50.404 7.6 258 6.8 102240 68
2008-04-16 08:13:47 51°14.523 2°50.397 6.6 258 6.8 102240 68
2008-04-16 08:13:52 51°14.521 2°50.392 6 259 6.8 102240 68
2008-04-16 08:13:56 51°14.519 2°50.388 6.2 253 6.8 102240 68
2008-04-16 08:14:01 51°14.517 2°50.383 8.9 254 6.8 102240 68
2008-04-16 08:14:07 51°14.515 2°50.376 8.4 257 6.8 102240 68
2008-04-16 08:14:11 51°14.513 2°50.372 7 256 6.8 102240 67
2008-04-16 08:14:16 51°14.511 2°50.367 7.6 253 6.8 102240 67
2008-04-16 08:14:21 51°14.508 2°50.361 5.7 252 6.8 102240 67
2008-04-16 08:14:26 51°14.506 2°50.355 7.7 253 6.8 102240 67
2008-04-16 08:14:31 51°14.504 2°50.35 6.6 252 6.7 102240 67
2008-04-16 08:14:36 51°14.502 2°50.344 6.5 254 6.7 102240 67
2008-04-16 08:14:41 51°14.499 2°50.338 8 255 6.8 102240 67
2008-04-16 08:14:47 51°14.496 2°50.331 6.5 254 6.8 102240 67
2008-04-16 08:14:52 51°14.494 2°50.325 6 254 6.8 102240 67
2008-04-16 08:14:56 51°14.492 2°50.32 6.1 258 6.8 102240 67
2008-04-16 08:15:01 51°14.49 2°50.314 6.4 257 6.8 102240 67
2008-04-16 08:15:07 51°14.488 2°50.306 7.6 261 6.8 102240 67
2008-04-16 08:15:12 51°14.486 2°50.299 8 257 6.8 102240 67
2008-04-16 08:15:16 51°14.484 2°50.294 7.7 254 6.8 102240 67
2008-04-16 08:15:21 51°14.483 2°50.287 6.2 256 6.8 102230 67
2008-04-16 08:15:27 51°14.481 2°50.279 4.9 260 6.8 102230 67
2008-04-16 08:15:32 51°14.479 2°50.272 6.3 257 6.8 102240 67
2008-04-16 08:15:36 51°14.478 2°50.266 6.8 256 6.8 102240 67
2008-04-16 08:15:41 51°14.476 2°50.259 8.2 256 6.8 102240 67
2008-04-16 08:15:47 51°14.474 2°50.251 8.4 303 6.8 102240 67
2008-04-16 08:15:52 51°14.472 2°50.244 7.9 256 6.8 102240 68
2008-04-16 08:15:56 51°14.471 2°50.238 4.6 263 6.8 102240 68
2008-04-16 08:16:01 51°14.469 2°50.231 5.1 262 6.8 102240 68
2008-04-16 08:16:06 51°14.467 2°50.225 4.5 262 6.8 102240 68
2008-04-16 08:16:11 51°14.466 2°50.218 5.8 261 6.8 102240 68
2008-04-16 08:16:16 51°14.464 2°50.211 4.9 259 6.8 102240 68
2008-04-16 08:16:21 51°14.462 2°50.204 4 262 6.8 102240 68
2008-04-16 08:16:26 51°14.461 2°50.198 4.9 261 6.8 102240 68
2008-04-16 08:16:31 51°14.459 2°50.191 4.6 262 6.8 102240 68
2008-04-16 08:16:37 51°14.457 2°50.183 3.7 261 6.8 102240 68
2008-04-16 08:16:41 51°14.456 2°50.178 3.1 262 6.8 102240 67
2008-04-16 08:16:47 51°14.454 2°50.17 5.1 260 6.8 102240 67
2008-04-16 08:16:52 51°14.452 2°50.163 4.6 262 6.8 102240 67
2008-04-16 08:16:56 51°14.451 2°50.158 5.5 261 6.8 102240 67
2008-04-16 08:17:01 51°14.449 2°50.152 4 262 6.8 102240 67
2008-04-16 08:17:07 51°14.447 2°50.144 3.2 264 6.8 102240 67
2008-04-16 08:17:12 51°14.446 2°50.138 3.6 264 6.8 102240 67
2008-04-16 08:17:17 51°14.444 2°50.132 3.4 262 6.8 102240 67
2008-04-16 08:17:21 51°14.443 2°50.127 4.4 262 6.7 102240 67
2008-04-16 08:17:27 51°14.44 2°50.119 3.5 265 6.7 102240 67
2008-04-16 08:17:32 51°14.439 2°50.112 3.5 262 6.8 102240 67
2008-04-16 08:17:36 51°14.438 2°50.108 4.7 262 6.8 102240 67
2008-04-16 08:17:41 51°14.436 2°50.101 4.2 263 6.8 102250 67
2008-04-16 08:17:46 51°14.434 2°50.095 4.1 264 6.8 102250 67
2008-04-16 08:17:52 51°14.432 2°50.088 3.8 261 6.8 102240 67
2008-04-16 08:17:57 51°14.431 2°50.081 4.3 262 6.8 102240 67
2008-04-16 08:18:01 51°14.429 2°50.076 4.6 262 6.7 102240 67
2008-04-16 08:18:06 51°14.428 2°50.07 4.8 260 6.7 102240 67
2008-04-16 08:18:11 51°14.426 2°50.064 5.3 261 6.7 102240 67
2008-04-16 08:18:17 51°14.424 2°50.056 5.5 261 6.7 102240 67
2008-04-16 08:18:21 51°14.423 2°50.052 5 262 6.7 102240 67
2008-04-16 08:18:26 51°14.421 2°50.045 4 264 6.7 102240 67
2008-04-16 08:18:32 51°14.419 2°50.038 3.8 265 6.7 102240 67
2008-04-16 08:18:37 51°14.418 2°50.031 5 260 6.7 102240 67
2008-04-16 08:18:41 51°14.416 2°50.026 3.6 261 6.7 102240 67
2008-04-16 08:18:46 51°14.415 2°50.02 5.9 258 6.7 102240 67
2008-04-16 08:18:51 51°14.413 2°50.014 4.4 258 6.7 102240 67
2008-04-16 08:18:56 51°14.412 2°50.007 4.1 261 6.7 102240 67
2008-04-16 08:19:01 51°14.41 2°50.001 4.7 259 6.7 102240 67
2008-04-16 08:19:07 51°14.408 2°49.994 5.4 256 6.7 102240 67
2008-04-16 08:19:12 51°14.407 2°49.987 5.7 255 6.8 102250 68
2008-04-16 08:19:16 51°14.405 2°49.983 5.3 258 6.8 102250 68
2008-04-16 08:19:21 51°14.404 2°49.976 3.8 261 6.8 102250 68
2008-04-16 08:19:27 51°14.402 2°49.969 6 256 6.8 102250 68
2008-04-16 08:19:32 51°14.4 2°49.963 6.8 256 6.8 102240 68
2008-04-16 08:19:36 51°14.399 2°49.958 6.4 257 6.8 102240 68
2008-04-16 08:19:41 51°14.397 2°49.951 6.3 256 6.8 102240 68
2008-04-16 08:19:47 51°14.396 2°49.944 5.3 254 6.8 102240 68
2008-04-16 08:19:52 51°14.394 2°49.937 5.6 255 6.8 102240 68
2008-04-16 08:19:56 51°14.393 2°49.932 6.1 258 6.8 102240 68
2008-04-16 08:20:01 51°14.391 2°49.926 6.4 257 6.8 102240 68
2008-04-16 08:20:06 51°14.39 2°49.92 3.5 261 6.8 102240 68
2008-04-16 08:20:12 51°14.388 2°49.913 5.5 256 6.8 102240 68
2008-04-16 08:20:16 51°14.387 2°49.908 4.9 258 6.8 102240 68
2008-04-16 08:20:21 51°14.385 2°49.902 5 257 6.9 102240 68
2008-04-16 08:20:26 51°14.384 2°49.895 3.5 262 6.9 102240 68
2008-04-16 08:20:32 51°14.382 2°49.888 4.6 253 6.8 102250 68
2008-04-16 08:20:36 51°14.381 2°49.883 6.1 257 6.8 102250 68
2008-04-16 08:20:41 51°14.379 2°49.877 5.8 257 6.8 102240 68
2008-04-16 08:20:46 51°14.378 2°49.871 7.2 257 6.8 102240 68
2008-04-16 08:20:51 51°14.376 2°49.865 6.8 259 6.8 102230 68
2008-04-16 08:20:57 51°14.375 2°49.857 5.4 258 6.8 102230 68
2008-04-16 08:21:01 51°14.373 2°49.853 5.4 255 6.8 102240 68
2008-04-16 08:21:07 51°14.372 2°49.845 5.9 258 6.8 102240 68
2008-04-16 08:21:12 51°14.37 2°49.839 4.1 256 6.8 102240 68
2008-04-16 08:21:16 51°14.369 2°49.834 4.9 260 6.8 102240 68
2008-04-16 08:21:21 51°14.367 2°49.828 5.7 259 6.8 102240 67
2008-04-16 08:21:26 51°14.366 2°49.822 4.6 259 6.8 102240 67
2008-04-16 08:21:31 51°14.364 2°49.816 5.5 258 6.8 102250 67
2008-04-16 08:21:37 51°14.362 2°49.809 6.2 255 6.8 102250 67
2008-04-16 08:21:42 51°14.361 2°49.803 6 257 6.8 102240 68
2008-04-16 08:21:47 51°14.36 2°49.797 4.6 258 6.8 102240 68
2008-04-16 08:21:52 51°14.358 2°49.791 6.4 259 6.8 102230 68
2008-04-16 08:21:56 51°14.357 2°49.786 4.6 260 6.8 102230 68
2008-04-16 08:22:01 51°14.356 2°49.779 4.6 259 6.8 102240 67
2008-04-16 08:22:07 51°14.354 2°49.773 5.4 260 6.8 102240 67
2008-04-16 08:22:12 51°14.353 2°49.766 6.2 258 6.8 102240 68
2008-04-16 08:22:17 51°14.351 2°49.76 6 257 6.8 102240 68
2008-04-16 08:22:21 51°14.35 2°49.755 5 258 6.8 102240 68
2008-04-16 08:22:26 51°14.348 2°49.749 4.2 261 6.8 102240 68
2008-04-16 08:22:32 51°14.347 2°49.742 3.7 261 6.9 102240 68
2008-04-16 08:22:36 51°14.346 2°49.737 4.5 261 6.9 102240 68
2008-04-16 08:22:41 51°14.345 2°49.731 5.6 258 6.9 102240 68
2008-04-16 08:22:47 51°14.343 2°49.724 4.4 257 6.9 102240 68
2008-04-16 08:22:52 51°14.341 2°49.718 4.3 257 6.9 102240 67
2008-04-16 08:22:56 51°14.34 2°49.713 4.6 257 6.9 102240 67
2008-04-16 08:23:01 51°14.339 2°49.707 4.4 259 6.9 102240 67
2008-04-16 08:23:07 51°14.337 2°49.7 6.2 258 6.9 102240 67
2008-04-16 08:23:12 51°14.335 2°49.694 4.4 259 6.9 102240 67
2008-04-16 08:23:17 51°14.334 2°49.688 3.7 262 6.9 102240 67
2008-04-16 08:23:21 51°14.333 2°49.683 4.9 261 6.9 102240 67
2008-04-16 08:23:27 51°14.331 2°49.676 2.9 261 6.9 102240 67
2008-04-16 08:23:32 51°14.329 2°49.67 3 264 6.9 102240 67
2008-04-16 08:23:36 51°14.328 2°49.666 4.4 263 6.9 102240 67
2008-04-16 08:23:41 51°14.327 2°49.66 3.7 262 6.9 102240 67
2008-04-16 08:23:47 51°14.325 2°49.653 3.8 263 6.9 102240 67
2008-04-16 08:23:52 51°14.323 2°49.647 4.6 262 6.9 102240 67
2008-04-16 08:23:56 51°14.322 2°49.642 4.2 261 6.9 102240 67
2008-04-16 08:24:01 51°14.321 2°49.636 3.9 263 6.9 102240 67
2008-04-16 08:24:07 51°14.319 2°49.629 4 262 6.9 102240 67
2008-04-16 08:24:12 51°14.318 2°49.623 3.9 264 6.9 102230 67
2008-04-16 08:24:16 51°14.316 2°49.618 4.2 263 6.9 102230 67
2008-04-16 08:24:21 51°14.315 2°49.612 3.6 264 6.8 102240 67
2008-04-16 08:24:27 51°14.313 2°49.605 4.1 264 6.8 102240 67
2008-04-16 08:24:32 51°14.312 2°49.599 3 262 6.8 102240 67
2008-04-16 08:24:37 51°14.31 2°49.594 3.1 265 6.8 102240 67
2008-04-16 08:24:41 51°14.309 2°49.589 3.2 263 6.8 102240 67
2008-04-16 08:24:46 51°14.308 2°49.583 4.8 260 6.8 102240 67
2008-04-16 08:24:52 51°14.306 2°49.576 4.8 260 6.8 102240 67
2008-04-16 08:24:57 51°14.304 2°49.57 3.3 265 6.8 102240 67
2008-04-16 08:25:01 51°14.304 2°49.565 3.1 266 6.8 102240 67
2008-04-16 08:25:06 51°14.302 2°49.56 3.4 263 6.8 102240 67
2008-04-16 08:25:12 51°14.3 2°49.553 4.6 263 6.8 102240 67
2008-04-16 08:25:17 51°14.299 2°49.546 3.8 262 6.8 102240 67
2008-04-16 08:25:21 51°14.297 2°49.542 5.3 260 6.8 102240 67
2008-04-16 08:25:26 51°14.296 2°49.536 6.2 260 6.8 102240 67
2008-04-16 08:25:31 51°14.294 2°49.53 4.3 261 6.8 102230 67
2008-04-16 08:25:37 51°14.293 2°49.523 6.1 260 6.8 102230 67
2008-04-16 08:25:41 51°14.292 2°49.518 4.9 262 6.8 102240 66
2008-04-16 08:25:46 51°14.29 2°49.512 4.7 261 6.8 102240 66
2008-04-16 08:25:52 51°14.289 2°49.506 4.2 262 6.8 102240 67
2008-04-16 08:25:56 51°14.287 2°49.501 5.1 257 6.8 102240 67
2008-04-16 08:26:01 51°14.286 2°49.496 4.7 255 6.8 102240 67
2008-04-16 08:26:07 51°14.284 2°49.489 4.2 259 6.8 102240 67
2008-04-16 08:26:12 51°14.283 2°49.483 5.3 255 6.8 102240 67
2008-04-16 08:26:16 51°14.282 2°49.478 5 262 6.8 102240 67
2008-04-16 08:26:21 51°14.28 2°49.472 5.7 260 6.8 102240 67
2008-04-16 08:26:27 51°14.279 2°49.465 4.9 262 6.8 102240 67
2008-04-16 08:26:32 51°14.277 2°49.459 4.2 260 6.9 102240 67
2008-04-16 08:26:36 51°14.276 2°49.455 4.7 261 6.9 102240 67
2008-04-16 08:26:41 51°14.275 2°49.449 4.8 262 6.9 102240 68
2008-04-16 08:26:47 51°14.273 2°49.442 3.9 262 6.9 102240 68
2008-04-16 08:26:52 51°14.272 2°49.436 3.8 262 6.9 102240 68
2008-04-16 08:26:56 51°14.271 2°49.431 6.8 259 6.9 102240 68
2008-04-16 08:27:01 51°14.269 2°49.426 6.6 256 6.9 102240 68
2008-04-16 08:27:06 51°14.268 2°49.42 5.2 256 6.9 102240 68
2008-04-16 08:27:12 51°14.266 2°49.413 6.9 256 6.9 102240 68
2008-04-16 08:27:16 51°14.265 2°49.408 6.6 254 6.9 102240 68
2008-04-16 08:27:21 51°14.264 2°49.402 5.4 255 6.9 102240 67
2008-04-16 08:27:27 51°14.262 2°49.395 6.7 256 6.9 102240 67
2008-04-16 08:27:32 51°14.261 2°49.389 6.3 259 6.9 102240 67
2008-04-16 08:27:36 51°14.26 2°49.384 6.9 256 6.9 102240 67
2008-04-16 08:27:41 51°14.258 2°49.378 8.1 258 6.9 102240 67
2008-04-16 08:27:47 51°14.257 2°49.371 5.7 260 6.9 102240 67
2008-04-16 08:27:52 51°14.256 2°49.365 5.3 260 6.9 102230 68
2008-04-16 08:27:56 51°14.255 2°49.36 4.9 258 6.9 102230 68
2008-04-16 08:28:01 51°14.253 2°49.354 5.4 260 6.9 102240 68
2008-04-16 08:28:06 51°14.252 2°49.348 6.4 258 6.9 102240 68
2008-04-16 08:28:11 51°14.25 2°49.342 6.4 258 6.9 102230 67
2008-04-16 08:28:16 51°14.249 2°49.336 5.3 258 6.9 102230 67
2008-04-16 08:28:22 51°14.248 2°49.329 5 259 6.9 102240 67
2008-04-16 08:28:27 51°14.246 2°49.323 7.4 254 6.9 102240 67
2008-04-16 08:28:32 51°14.245 2°49.317 7.8 256 6.9 102240 67
2008-04-16 08:28:36 51°14.244 2°49.312 7.4 260 6.9 102240 67
2008-04-16 08:28:41 51°14.242 2°49.306 5.7 259 6.9 102240 67
2008-04-16 08:28:47 51°14.241 2°49.299 6.4 260 6.9 102240 67
2008-04-16 08:28:52 51°14.239 2°49.293 4.8 261 6.9 102230 68
2008-04-16 08:28:57 51°14.238 2°49.287 6.4 260 6.9 102230 68
2008-04-16 08:29:01 51°14.237 2°49.282 7.3 260 6.9 102230 68
2008-04-16 08:29:06 51°14.235 2°49.276 4.9 261 6.9 102230 68
2008-04-16 08:29:12 51°14.233 2°49.269 5.2 261 6.9 102240 67
2008-04-16 08:29:16 51°14.232 2°49.264 6.2 260 6.9 102240 67
2008-04-16 08:29:21 51°14.231 2°49.258 4.4 261 6.9 102230 67
2008-04-16 08:29:26 51°14.229 2°49.253 4.6 262 6.9 102230 67
2008-04-16 08:29:32 51°14.228 2°49.245 3 264 6.9 102230 67
2008-04-16 08:29:37 51°14.226 2°49.239 5 259 6.9 102230 67
2008-04-16 08:29:41 51°14.225 2°49.235 4.7 256 6.9 102230 67
2008-04-16 08:29:46 51°14.224 2°49.229 4.3 256 6.9 102230 67
2008-04-16 08:29:51 51°14.223 2°49.223 5.4 257 6.9 102240 67
2008-04-16 08:29:57 51°14.221 2°49.216 5 259 6.9 102240 67
2008-04-16 08:30:01 51°14.22 2°49.211 6.7 259 6.9 102240 67
2008-04-16 08:30:07 51°14.218 2°49.204 4 260 6.9 102240 67
2008-04-16 08:30:12 51°14.217 2°49.198 5 262 6.9 102240 67
2008-04-16 08:30:16 51°14.215 2°49.193 5 260 6.9 102240 67
2008-04-16 08:30:21 51°14.214 2°49.187 5.3 257 7 102240 67
2008-04-16 08:30:27 51°14.213 2°49.18 7 260 7 102240 67
2008-04-16 08:30:32 51°14.211 2°49.174 6.5 262 7 102240 67
2008-04-16 08:30:36 51°14.21 2°49.169 5.4 261 7 102240 67
2008-04-16 08:30:41 51°14.208 2°49.163 5.7 261 7 102230 67
2008-04-16 08:30:47 51°14.207 2°49.156 5.6 260 7 102230 67
2008-04-16 08:30:52 51°14.205 2°49.15 5 263 7 102240 68
2008-04-16 08:30:56 51°14.204 2°49.146 7.5 256 7 102240 68
2008-04-16 08:31:01 51°14.203 2°49.14 7.9 258 7 102240 67
2008-04-16 08:31:07 51°14.201 2°49.133 6.5 261 7 102240 67
2008-04-16 08:31:12 51°14.2 2°49.127 5 262 7 102240 67
2008-04-16 08:31:16 51°14.199 2°49.122 5.4 262 7 102240 67
2008-04-16 08:31:21 51°14.198 2°49.116 4.6 264 7 102240 67
2008-04-16 08:31:27 51°14.196 2°49.109 5.6 260 7 102240 67
2008-04-16 08:31:32 51°14.194 2°49.103 4.3 259 7 102240 67
2008-04-16 08:31:36 51°14.193 2°49.098 4.1 260 7 102240 67
2008-04-16 08:31:41 51°14.192 2°49.092 4.9 259 7 102240 67
2008-04-16 08:31:46 51°14.19 2°49.087 5.3 260 7 102240 67
2008-04-16 08:31:52 51°14.189 2°49.08 5.7 260 7 102230 67
2008-04-16 08:31:56 51°14.188 2°49.075 3.3 262 7 102230 67
2008-04-16 08:32:01 51°14.186 2°49.069 4.3 261 7 102240 66
2008-04-16 08:32:07 51°14.184 2°49.062 5 261 7 102240 66
2008-04-16 08:32:11 51°14.183 2°49.058 3.3 263 7 102230 66
2008-04-16 08:32:17 51°14.182 2°49.051 4.5 261 7 102230 66
2008-04-16 08:32:21 51°14.181 2°49.046 6.9 256 7 102230 66
2008-04-16 08:32:26 51°14.179 2°49.04 7.5 258 7 102230 66
2008-04-16 08:32:31 51°14.178 2°49.034 7.9 259 6.9 102230 66
2008-04-16 08:32:36 51°14.177 2°49.028 7.7 255 6.9 102230 66
2008-04-16 08:32:42 51°14.175 2°49.021 7.7 258 7 102230 66
2008-04-16 08:32:47 51°14.174 2°49.015 6.5 258 7 102230 66
2008-04-16 08:32:52 51°14.172 2°49.009 7.2 257 7 102230 67
2008-04-16 08:32:56 51°14.171 2°49.005 7.2 259 7 102230 67
2008-04-16 08:33:01 51°14.17 2°48.999 5.8 260 7 102230 67
2008-04-16 08:33:07 51°14.169 2°48.991 5.2 262 7 102230 67
2008-04-16 08:33:11 51°14.168 2°48.986 3.9 262 7 102230 67
2008-04-16 08:33:17 51°14.167 2°48.979 5.6 261 7 102230 67
2008-04-16 08:33:21 51°14.167 2°48.974 4.6 263 7 102230 67
2008-04-16 08:33:27 51°14.167 2°48.966 4.5 264 7 102230 67
2008-04-16 08:33:32 51°14.166 2°48.96 3.5 265 7 102230 67
2008-04-16 08:33:36 51°14.167 2°48.955 3.1 263 7 102230 67
2008-04-16 08:33:41 51°14.167 2°48.949 4.2 268 7 102230 67
2008-04-16 08:33:47 51°14.167 2°48.941 3.6 267 7 102230 67
2008-04-16 08:33:52 51°14.168 2°48.935 3.9 265 7 102230 67
2008-04-16 08:33:57 51°14.169 2°48.929 4.8 39 7 102230 67
2008-04-16 08:34:01 51°14.17 2°48.924 4 29 6.9 102230 66
2008-04-16 08:34:06 51°14.171 2°48.917 4.8 34 6.9 102230 66
2008-04-16 08:34:12 51°14.173 2°48.91 5.2 26 6.9 102230 66
2008-04-16 08:34:17 51°14.175 2°48.904 5.3 33 6.9 102230 66
2008-04-16 08:34:21 51°14.176 2°48.899 4.9 29 6.9 102230 66
2008-04-16 08:34:26 51°14.178 2°48.893 4.5 31 6.9 102230 66
2008-04-16 08:34:31 51°14.18 2°48.887 4.5 24 6.9 102230 67
2008-04-16 08:34:37 51°14.184 2°48.88 4.8 36 6.9 102230 67
2008-04-16 08:34:41 51°14.186 2°48.876 4.6 27 6.9 102230 66
2008-04-16 08:34:47 51°14.189 2°48.869 5.2 37 6.9 102230 66
2008-04-16 08:34:51 51°14.192 2°48.865 5.7 22 6.8 102230 66
2008-04-16 08:34:57 51°14.195 2°48.858 4.6 37 6.8 102230 66
2008-04-16 08:35:01 51°14.198 2°48.854 5 19 6.8 102230 66
2008-04-16 08:35:06 51°14.202 2°48.849 2.8 37 6.8 102230 66
2008-04-16 08:35:12 51°14.206 2°48.844 2.7 27 6.8 102230 66
2008-04-16 08:35:16 51°14.209 2°48.84 2.8 38 6.8 102230 66
2008-04-16 08:35:22 51°14.214 2°48.836 2.9 20 6.8 102230 66
2008-04-16 08:35:27 51°14.219 2°48.832 4.4 33 6.8 102230 66
2008-04-16 08:35:32 51°14.223 2°48.829 4.5 28 6.8 102220 66
2008-04-16 08:35:36 51°14.227 2°48.827 5.6 43 6.8 102220 66
2008-04-16 08:35:41 51°14.232 2°48.825 5.9 42 6.9 102230 68
2008-04-16 08:35:47 51°14.237 2°48.824 5.5 37 6.9 102230 68
2008-04-16 08:35:52 51°14.242 2°48.824 6 36 6.9 102230 68
2008-04-16 08:35:57 51°14.248 2°48.824 5.8 32 6.9 102230 68
2008-04-16 08:36:01 51°14.252 2°48.825 5.6 30 6.9 102230 66
2008-04-16 08:36:06 51°14.257 2°48.827 6.2 29 6.9 102230 66
2008-04-16 08:36:12 51°14.263 2°48.829 6 25 6.8 102230 65
2008-04-16 08:36:16 51°14.267 2°48.831 5.5 24 6.8 102230 65
2008-04-16 08:36:21 51°14.272 2°48.834 6.1 24 6.9 102230 66
2008-04-16 08:36:27 51°14.278 2°48.838 6.1 21 6.9 102230 66
2008-04-16 08:36:32 51°14.282 2°48.842 5.8 21 6.9 102220 66
2008-04-16 08:36:36 51°14.286 2°48.845 6.5 19 6.9 102220 66
2008-04-16 08:36:41 51°14.29 2°48.849 6.4 19 6.8 102230 66
2008-04-16 08:36:47 51°14.294 2°48.854 7 19 6.8 102230 66
2008-04-16 08:36:52 51°14.298 2°48.858 6.9 18 6.8 102230 66
2008-04-16 08:36:57 51°14.301 2°48.862 5.8 16 6.8 102230 66
2008-04-16 08:37:01 51°14.304 2°48.865 6.7 17 6.8 102220 65
2008-04-16 08:37:07 51°14.308 2°48.87 5.8 18 6.8 102220 65
2008-04-16 08:37:12 51°14.311 2°48.874 6.3 17 6.7 102230 65
2008-04-16 08:37:16 51°14.314 2°48.876 5.7 18 6.7 102230 65
2008-04-16 08:37:21 51°14.317 2°48.881 5.8 18 6.7 102230 66
2008-04-16 08:37:27 51°14.321 2°48.885 5.4 17 6.7 102230 66
2008-04-16 08:37:32 51°14.323 2°48.889 6.2 18 6.7 102230 65
2008-04-16 08:37:36 51°14.326 2°48.891 6.9 21 6.7 102230 65
2008-04-16 08:37:41 51°14.328 2°48.895 6.4 19 6.7 102230 66
2008-04-16 08:37:47 51°14.332 2°48.9 6.2 18 6.7 102230 66
2008-04-16 08:37:52 51°14.335 2°48.903 5.6 18 6.7 102230 66
2008-04-16 08:37:56 51°14.337 2°48.906 5.6 20 6.7 102230 66
2008-04-16 08:38:01 51°14.339 2°48.909 6 23 6.7 102240 66
2008-04-16 08:38:07 51°14.342 2°48.913 6.4 22 6.7 102240 66
2008-04-16 08:38:12 51°14.345 2°48.917 7.1 23 6.7 102230 66
2008-04-16 08:38:16 51°14.347 2°48.919 6.9 24 6.7 102230 66
2008-04-16 08:38:21 51°14.35 2°48.923 6.6 25 6.7 102220 66
2008-04-16 08:38:26 51°14.352 2°48.926 5.8 21 6.7 102220 66
2008-04-16 08:38:32 51°14.355 2°48.93 5.9 22 6.7 102220 66
2008-04-16 08:38:37 51°14.357 2°48.933 5.2 21 6.7 102220 66
2008-04-16 08:38:41 51°14.359 2°48.935 6.2 21 6.7 102230 66
2008-04-16 08:38:46 51°14.361 2°48.938 5.7 18 6.7 102230 66
2008-04-16 08:38:52 51°14.364 2°48.942 5.3 24 6.7 102220 66
2008-04-16 08:38:57 51°14.367 2°48.946 5.8 21 6.7 102220 66
2008-04-16 08:39:01 51°14.369 2°48.948 6.2 23 6.7 102230 66
2008-04-16 08:39:07 51°14.372 2°48.954 6 16 6.7 102230 66
2008-04-16 08:39:12 51°14.375 2°48.958 6.4 13 6.6 102230 66
2008-04-16 08:39:17 51°14.379 2°48.964 6.1 7 6.6 102230 66
2008-04-16 08:39:21 51°14.382 2°48.97 5.9 8 6.7 102220 66
2008-04-16 08:39:26 51°14.386 2°48.977 5.9 3 6.7 102220 66
2008-04-16 08:39:32 51°14.391 2°48.986 5.8 2 6.7 102220 67
2008-04-16 08:39:36 51°14.394 2°48.992 7.3 360 6.7 102220 67
2008-04-16 08:39:42 51°14.399 2°49.002 6.8 360 6.7 102230 67
2008-04-16 08:39:47 51°14.403 2°49.011 6.6 1 6.7 102230 67
2008-04-16 08:39:52 51°14.407 2°49.02 7 1 6.7 102220 66
2008-04-16 08:39:56 51°14.411 2°49.028 6.7 357 6.7 102220 66
2008-04-16 08:40:01 51°14.415 2°49.039 7.3 360 6.7 102220 66
2008-04-16 08:40:07 51°14.421 2°49.053 7.9 357 6.7 102220 66
2008-04-16 08:40:12 51°14.424 2°49.064 7 356 6.7 102220 67
2008-04-16 08:40:16 51°14.427 2°49.073 7.9 358 6.7 102220 67
2008-04-16 08:40:21 51°14.431 2°49.083 8.3 358 6.6 102230 66
2008-04-16 08:40:27 51°14.435 2°49.096 7.3 357 6.6 102230 66
2008-04-16 08:40:32 51°14.438 2°49.106 6 356 6.6 102220 66
2008-04-16 08:40:36 51°14.44 2°49.114 6.8 358 6.6 102220 66
2008-04-16 08:40:41 51°14.442 2°49.124 7.1 356 6.6 102220 66
2008-04-16 08:40:46 51°14.445 2°49.133 7 359 6.6 102220 66
2008-04-16 08:40:52 51°14.447 2°49.143 6.6 359 6.6 102220 66
2008-04-16 08:40:56 51°14.449 2°49.15 6.6 359 6.6 102220 66
2008-04-16 08:41:01 51°14.451 2°49.159 6.7 357 6.6 102220 67
2008-04-16 08:41:07 51°14.454 2°49.168 7.3 358 6.6 102220 67
2008-04-16 08:41:12 51°14.456 2°49.176 6.9 354 6.6 102220 67
2008-04-16 08:41:16 51°14.458 2°49.183 7.5 356 6.6 102220 67
2008-04-16 08:41:21 51°14.459 2°49.19 8.1 355 6.6 102220 67
2008-04-16 08:41:27 51°14.462 2°49.199 6.9 358 6.6 102220 67
2008-04-16 08:41:32 51°14.463 2°49.207 6.9 358 6.5 102210 67
2008-04-16 08:41:36 51°14.465 2°49.212 7.5 357 6.5 102210 67
2008-04-16 08:41:41 51°14.467 2°49.219 7 355 6.5 102220 67
2008-04-16 08:41:46 51°14.469 2°49.226 6.8 356 6.5 102220 67
2008-04-16 08:41:51 51°14.47 2°49.232 6.5 355 6.5 102220 66
2008-04-16 08:41:56 51°14.472 2°49.239 6.4 355 6.5 102220 66
2008-04-16 08:42:02 51°14.474 2°49.246 6.8 353 6.5 102220 67
2008-04-16 08:42:07 51°14.476 2°49.253 5.9 359 6.5 102220 67
2008-04-16 08:42:12 51°14.478 2°49.259 6.4 355 6.5 102210 67
2008-04-16 08:42:16 51°14.479 2°49.263 7 354 6.5 102210 67
2008-04-16 08:42:22 51°14.481 2°49.27 7.3 353 6.6 102220 68
2008-04-16 08:42:27 51°14.483 2°49.276 7.8 353 6.6 102220 68
2008-04-16 08:42:32 51°14.485 2°49.282 7.3 353 6.6 102220 68
2008-04-16 08:42:37 51°14.487 2°49.287 7.3 357 6.6 102220 68
2008-04-16 08:42:41 51°14.488 2°49.291 7.8 358 6.6 102210 68
2008-04-16 08:42:47 51°14.49 2°49.298 7.6 358 6.6 102210 68
2008-04-16 08:42:52 51°14.492 2°49.303 7.7 357 6.5 102210 68
2008-04-16 08:42:56 51°14.494 2°49.307 7.5 358 6.5 102210 68
2008-04-16 08:43:01 51°14.496 2°49.312 6.7 356 6.5 102210 68
2008-04-16 08:43:06 51°14.497 2°49.316 7.5 358 6.5 102210 68
2008-04-16 08:43:12 51°14.5 2°49.322 6.9 358 6.6 102220 68
2008-04-16 08:43:17 51°14.502 2°49.327 6.3 -999 6.6 102220 68
2008-04-16 08:43:21 51°14.504 2°49.331 6 3 6.5 102210 67
2008-04-16 08:43:26 51°14.505 2°49.336 7.2 3 6.5 102210 67
2008-04-16 08:43:31 51°14.507 2°49.341 6.8 4 6.5 102210 67
2008-04-16 08:43:37 51°14.51 2°49.346 6.5 3 6.5 102210 67
2008-04-16 08:43:41 51°14.512 2°49.35 7.4 5 6.6 102210 68
2008-04-16 08:43:47 51°14.514 2°49.355 6.8 4 6.6 102210 68
2008-04-16 08:43:52 51°14.516 2°49.36 6.5 5 6.6 102200 69
2008-04-16 08:43:57 51°14.519 2°49.365 5.6 6 6.6 102200 69
2008-04-16 08:44:01 51°14.521 2°49.368 6.8 6 6.6 102210 68
2008-04-16 08:44:07 51°14.524 2°49.374 5.5 4 6.6 102210 68
2008-04-16 08:44:12 51°14.526 2°49.379 5.5 5 6.6 102210 67
2008-04-16 08:44:16 51°14.528 2°49.383 5.6 3 6.6 102210 67
2008-04-16 08:44:21 51°14.53 2°49.388 5.9 3 6.5 102210 67
2008-04-16 08:44:27 51°14.533 2°49.394 6.9 4 6.5 102210 67
2008-04-16 08:44:32 51°14.536 2°49.4 6.5 5 6.5 102220 67
2008-04-16 08:44:36 51°14.538 2°49.404 4.8 5 6.5 102220 67
2008-04-16 08:44:41 51°14.54 2°49.409 6 1 6.5 102220 67
2008-04-16 08:44:47 51°14.543 2°49.415 7.1 1 6.5 102220 67
2008-04-16 08:44:52 51°14.545 2°49.421 7.9 -999 6.6 102210 67
2008-04-16 08:44:56 51°14.547 2°49.425 5.9 1 6.6 102210 67
2008-04-16 08:45:01 51°14.549 2°49.431 6.1 1 6.6 102210 68
2008-04-16 08:45:06 51°14.552 2°49.436 7 -999 6.6 102210 68
2008-04-16 08:45:12 51°14.555 2°49.443 6.4 2 6.6 102210 68
2008-04-16 08:45:16 51°14.556 2°49.448 5.8 359 6.6 102210 68
2008-04-16 08:45:21 51°14.559 2°49.453 5.6 359 6.5 102210 67
2008-04-16 08:45:26 51°14.561 2°49.459 7.4 355 6.5 102210 67
2008-04-16 08:45:31 51°14.563 2°49.465 6.4 354 6.5 102210 66
2008-04-16 08:45:37 51°14.565 2°49.472 6.4 353 6.5 102210 66
2008-04-16 08:45:41 51°14.567 2°49.477 5.8 354 6.5 102210 66
2008-04-16 08:45:47 51°14.57 2°49.484 6.2 357 6.5 102210 66
2008-04-16 08:45:52 51°14.572 2°49.49 7.1 358 6.5 102210 66
2008-04-16 08:45:56 51°14.573 2°49.495 6.9 355 6.5 102210 66
2008-04-16 08:46:01 51°14.575 2°49.5 6.8 356 6.5 102210 66
2008-04-16 08:46:07 51°14.577 2°49.508 6.7 356 6.5 102210 66
2008-04-16 08:46:12 51°14.579 2°49.514 7.6 359 6.5 102210 66
2008-04-16 08:46:16 51°14.581 2°49.519 6.1 1 6.5 102210 66
2008-04-16 08:46:21 51°14.583 2°49.525 8.1 359 6.5 102210 67
2008-04-16 08:46:27 51°14.585 2°49.533 7.3 359 6.5 102210 67
2008-04-16 08:46:32 51°14.587 2°49.539 6.5 356 6.5 102200 66
2008-04-16 08:46:36 51°14.588 2°49.544 8.3 353 6.5 102200 66
2008-04-16 08:46:41 51°14.59 2°49.55 8 354 6.5 102210 67
2008-04-16 08:46:47 51°14.593 2°49.557 7.9 354 6.5 102210 67
2008-04-16 08:46:52 51°14.594 2°49.564 8.1 354 6.6 102210 67
2008-04-16 08:46:56 51°14.596 2°49.569 7.1 355 6.6 102210 67
2008-04-16 08:47:01 51°14.598 2°49.575 7.4 356 6.6 102200 68
2008-04-16 08:47:07 51°14.6 2°49.582 8.1 353 6.6 102200 68
2008-04-16 08:47:12 51°14.602 2°49.589 8.3 352 6.6 102210 67
2008-04-16 08:47:16 51°14.603 2°49.594 8.5 353 6.6 102210 67
2008-04-16 08:47:21 51°14.605 2°49.6 7.8 353 6.5 102200 67
2008-04-16 08:47:26 51°14.607 2°49.606 7.5 350 6.5 102200 67
2008-04-16 08:47:32 51°14.609 2°49.614 7.1 351 6.5 102210 67
2008-04-16 08:47:36 51°14.611 2°49.619 6.9 351 6.5 102210 67
2008-04-16 08:47:41 51°14.612 2°49.625 7 351 6.5 102200 67
2008-04-16 08:47:47 51°14.615 2°49.633 6 352 6.5 102200 67
2008-04-16 08:47:52 51°14.616 2°49.639 6.5 351 6.5 102210 67
2008-04-16 08:47:56 51°14.618 2°49.644 5.6 356 6.5 102210 67
2008-04-16 08:48:01 51°14.62 2°49.65 5.9 356 6.5 102210 66
2008-04-16 08:48:07 51°14.622 2°49.658 5.4 353 6.5 102210 66
2008-04-16 08:48:12 51°14.624 2°49.664 6.6 358 6.5 102220 65
2008-04-16 08:48:17 51°14.625 2°49.671 6.9 350 6.5 102220 65
2008-04-16 08:48:22 51°14.627 2°49.677 8 353 6.5 102210 65
2008-04-16 08:48:27 51°14.628 2°49.684 7.6 355 6.5 102210 65
2008-04-16 08:48:32 51°14.63 2°49.69 7.6 354 6.5 102210 66
2008-04-16 08:48:36 51°14.631 2°49.695 7 355 6.5 102210 66
2008-04-16 08:48:41 51°14.633 2°49.701 6.8 355 6.6 102210 67
2008-04-16 08:48:47 51°14.635 2°49.709 6.9 356 6.6 102210 67
2008-04-16 08:48:51 51°14.637 2°49.714 7.6 355 6.6 102210 67
2008-04-16 08:48:57 51°14.639 2°49.722 6.5 356 6.6 102210 67
2008-04-16 08:49:02 51°14.641 2°49.728 6.6 353 6.6 102200 67
2008-04-16 08:49:07 51°14.642 2°49.735 6.5 353 6.6 102200 67
2008-04-16 08:49:12 51°14.644 2°49.742 6.5 354 6.6 102200 67
2008-04-16 08:49:16 51°14.645 2°49.747 7.1 353 6.6 102200 67
2008-04-16 08:49:21 51°14.647 2°49.753 6.7 354 6.6 102200 66
2008-04-16 08:49:27 51°14.649 2°49.761 5.6 353 6.6 102200 66
2008-04-16 08:49:32 51°14.651 2°49.767 5.3 354 6.6 102200 67
2008-04-16 08:49:37 51°14.653 2°49.774 6 355 6.6 102200 67
2008-04-16 08:49:41 51°14.654 2°49.779 6.2 355 6.5 102210 66
2008-04-16 08:49:46 51°14.656 2°49.786 6.2 351 6.5 102210 66
2008-04-16 08:49:52 51°14.658 2°49.794 6.3 353 6.5 102200 66
2008-04-16 08:49:57 51°14.66 2°49.8 5.5 355 6.5 102200 66
2008-04-16 08:50:01 51°14.661 2°49.805 5.6 355 6.5 102200 66
2008-04-16 08:50:07 51°14.663 2°49.813 5.8 355 6.5 102200 66
2008-04-16 08:50:12 51°14.665 2°49.82 6.1 354 6.5 102210 67
2008-04-16 08:50:16 51°14.666 2°49.825 6.7 358 6.5 102210 67
2008-04-16 08:50:21 51°14.668 2°49.832 6.8 358 6.5 102210 66
2008-04-16 08:50:27 51°14.67 2°49.84 6.6 358 6.5 102210 66
2008-04-16 08:50:32 51°14.672 2°49.846 6.8 358 6.5 102210 66
2008-04-16 08:50:37 51°14.673 2°49.853 7.1 359 6.5 102210 66
2008-04-16 08:50:41 51°14.675 2°49.858 6.7 1 6.5 102200 66
2008-04-16 08:50:47 51°14.677 2°49.866 6.8 3 6.5 102200 66
2008-04-16 08:50:52 51°14.679 2°49.873 6.4 356 6.5 102210 66
2008-04-16 08:50:56 51°14.68 2°49.878 6.6 2 6.5 102210 66
2008-04-16 08:51:01 51°14.682 2°49.884 6.9 -999 6.5 102200 67
2008-04-16 08:51:07 51°14.684 2°49.893 7.1 358 6.5 102200 67
2008-04-16 08:51:12 51°14.686 2°49.899 6.4 359 6.6 102200 67
2008-04-16 08:51:16 51°14.687 2°49.904 6.6 -999 6.6 102200 67
2008-04-16 08:51:21 51°14.689 2°49.911 6.3 360 6.6 102200 68
2008-04-16 08:51:27 51°14.692 2°49.919 7.1 358 6.6 102200 68
2008-04-16 08:51:32 51°14.693 2°49.926 6.3 358 6.6 102210 67
2008-04-16 08:51:36 51°14.695 2°49.931 5.8 358 6.6 102210 67
2008-04-16 08:51:41 51°14.697 2°49.938 6.1 358 6.6 102200 67
2008-04-16 08:51:47 51°14.699 2°49.946 6.7 357 6.6 102200 67
2008-04-16 08:51:52 51°14.7 2°49.952 7.1 355 6.6 102200 67
2008-04-16 08:51:56 51°14.702 2°49.958 7.2 356 6.6 102200 67
2008-04-16 08:52:01 51°14.704 2°49.964 7.2 354 6.6 102200 67
2008-04-16 08:52:06 51°14.706 2°49.971 6.7 349 6.6 102200 67
2008-04-16 08:52:12 51°14.708 2°49.979 6.6 350 6.6 102200 67
2008-04-16 08:52:17 51°14.709 2°49.986 7.6 349 6.6 102200 67
2008-04-16 08:52:21 51°14.711 2°49.991 7.1 350 6.6 102200 67
2008-04-16 08:52:26 51°14.713 2°49.997 7 350 6.6 102200 67
2008-04-16 08:52:31 51°14.715 2°50.004 6.5 349 6.6 102210 67
2008-04-16 08:52:37 51°14.717 2°50.012 7 352 6.6 102210 67
2008-04-16 08:52:42 51°14.718 2°50.019 7.1 350 6.6 102210 66
2008-04-16 08:52:47 51°14.72 2°50.025 7 352 6.6 102210 66
2008-04-16 08:52:52 51°14.722 2°50.032 7.8 353 6.6 102200 65
2008-04-16 08:52:57 51°14.724 2°50.038 7.3 352 6.6 102200 65
2008-04-16 08:53:01 51°14.725 2°50.043 6.8 352 6.6 102210 65
2008-04-16 08:53:07 51°14.727 2°50.051 6.7 352 6.6 102210 65
2008-04-16 08:53:12 51°14.729 2°50.058 5.9 350 6.6 102200 65
2008-04-16 08:53:17 51°14.731 2°50.064 5.5 351 6.6 102200 65
2008-04-16 08:53:22 51°14.733 2°50.071 6.7 352 6.6 102200 65
2008-04-16 08:53:27 51°14.735 2°50.077 6.5 357 6.6 102200 65
2008-04-16 08:53:32 51°14.737 2°50.084 6.7 357 6.6 102200 65
2008-04-16 08:53:36 51°14.738 2°50.089 6.6 357 6.6 102200 65
2008-04-16 08:53:41 51°14.74 2°50.096 6.5 357 6.6 102200 66
2008-04-16 08:53:47 51°14.742 2°50.103 6.6 355 6.6 102200 66
2008-04-16 08:53:52 51°14.744 2°50.11 7 354 6.7 102200 67
2008-04-16 08:53:56 51°14.732 2°54.92 -999 -999 -999 -999 -999
2008-04-16 08:53:56 51°14.745 2°50.115 6.1 353 6.7 102200 67
2008-04-16 08:53:56 51°14.732 2°54.92 -999 -999 -999 -999 -999
2008-04-16 08:53:56 51°14.732 2°54.92 -999 -999 -999 -999 -999
2008-04-16 08:53:56 51°14.732 2°54.92 -999 -999 -999 -999 -999
2008-04-16 08:53:56 51°14.732 2°54.92 -999 -999 -999 -999 -999
2008-04-16 08:53:56 51°14.732 2°54.92 -999 -999 -999 -999 -999
2008-04-16 08:53:56 51°14.732 2°54.92 -999 -999 -999 -999 -999
2008-04-16 08:53:56 51°14.732 2°54.92 -999 -999 -999 -999 -999
2008-04-16 08:53:56 51°14.732 2°54.92 -999 -999 -999 -999 -999
2008-04-16 08:54:01 51°14.747 2°50.122 5.9 353 6.6 102200 67
2008-04-16 08:54:07 51°14.75 2°50.13 6 353 6.6 102200 67
2008-04-16 08:54:12 51°14.751 2°50.136 6.2 352 6.6 102200 66
2008-04-16 08:54:17 51°14.753 2°50.143 6.3 350 6.6 102200 66
2008-04-16 08:54:21 51°14.755 2°50.148 6.7 353 6.6 102200 66
2008-04-16 08:54:27 51°14.757 2°50.156 6.6 351 6.6 102200 66
2008-04-16 08:54:32 51°14.759 2°50.163 6.7 351 6.6 102210 65
2008-04-16 08:54:36 51°14.76 2°50.168 6.2 352 6.6 102210 65
2008-04-16 08:54:41 51°14.762 2°50.175 5.6 352 6.6 102210 65
2008-04-16 08:54:47 51°14.764 2°50.183 5.3 350 6.6 102210 65
2008-04-16 08:54:52 51°14.766 2°50.189 5.1 352 6.5 102200 64
2008-04-16 08:54:57 51°14.768 2°50.196 5.6 350 6.5 102200 64
2008-04-16 08:55:01 51°14.769 2°50.202 6.3 349 6.5 102200 64
2008-04-16 08:55:07 51°14.771 2°50.21 6.1 353 6.5 102200 64
2008-04-16 08:55:12 51°14.773 2°50.216 5.5 356 6.5 102210 64
2008-04-16 08:55:16 51°14.774 2°50.222 6.7 356 6.5 102210 64
2008-04-16 08:55:21 51°14.776 2°50.228 5.9 357 6.5 102200 64
2008-04-16 08:55:27 51°14.778 2°50.236 8 352 6.5 102200 64
2008-04-16 08:55:31 51°14.78 2°50.242 7.1 351 6.6 102200 66
2008-04-16 08:55:36 51°14.782 2°50.248 7.8 352 6.6 102200 66
2008-04-16 08:55:41 51°14.783 2°50.255 7.1 354 6.6 102190 66
2008-04-16 08:55:47 51°14.786 2°50.263 7.3 358 6.6 102190 66
2008-04-16 08:55:52 51°14.788 2°50.27 7.1 356 6.6 102210 66
2008-04-16 08:55:56 51°14.789 2°50.275 7.6 356 6.6 102210 66
2008-04-16 08:56:01 51°14.791 2°50.282 6.7 354 6.6 102200 66
2008-04-16 08:56:07 51°14.793 2°50.29 7.4 355 6.6 102200 66
2008-04-16 08:56:12 51°14.795 2°50.297 7.3 353 6.7 102200 66
2008-04-16 08:56:17 51°14.797 2°50.303 6.9 355 6.7 102200 66
2008-04-16 08:56:21 51°14.799 2°50.309 6.6 356 6.7 102190 66
2008-04-16 08:56:27 51°14.801 2°50.317 6.7 358 6.7 102190 66
2008-04-16 08:56:32 51°14.802 2°50.324 7.5 355 6.7 102200 66
2008-04-16 08:56:37 51°14.804 2°50.33 7.4 355 6.7 102200 66
2008-04-16 08:56:41 51°14.806 2°50.336 7.1 355 6.7 102200 66
2008-04-16 08:56:46 51°14.807 2°50.342 6.9 350 6.7 102200 66
2008-04-16 08:56:52 51°14.81 2°50.35 6.8 354 6.7 102200 67
2008-04-16 08:56:57 51°14.812 2°50.357 6.4 354 6.7 102200 67
2008-04-16 08:57:01 51°14.813 2°50.362 7.4 353 6.7 102200 67
2008-04-16 08:57:07 51°14.815 2°50.37 6.8 354 6.7 102200 67
2008-04-16 08:57:11 51°14.817 2°50.375 6 353 6.7 102190 67
2008-04-16 08:57:17 51°14.819 2°50.383 6.8 350 6.7 102190 67
2008-04-16 08:57:21 51°14.82 2°50.389 6.4 349 6.7 102190 67
2008-04-16 08:57:27 51°14.822 2°50.397 6.1 349 6.7 102190 67
2008-04-16 08:57:31 51°14.824 2°50.402 6.8 353 6.7 102200 67
2008-04-16 08:57:37 51°14.826 2°50.41 7.5 353 6.7 102200 67
2008-04-16 08:57:42 51°14.827 2°50.417 7.3 354 6.8 102200 67
2008-04-16 08:57:47 51°14.829 2°50.423 6.4 355 6.8 102200 67
2008-04-16 08:57:52 51°14.831 2°50.43 6.8 354 6.7 102200 67
2008-04-16 08:57:56 51°14.833 2°50.435 6.5 355 6.7 102200 67
2008-04-16 08:58:01 51°14.835 2°50.442 7.4 356 6.7 102190 67
2008-04-16 08:58:07 51°14.837 2°50.45 5.8 355 6.7 102190 67
2008-04-16 08:58:12 51°14.838 2°50.457 6.4 353 6.7 102200 66
2008-04-16 08:58:17 51°14.84 2°50.463 5.6 353 6.7 102200 66
2008-04-16 08:58:22 51°14.842 2°50.47 5.4 352 6.7 102200 65
2008-04-16 08:58:28 51°14.844 2°50.478 5.5 350 6.7 102200 65
2008-04-16 08:58:32 51°14.846 2°50.483 5.4 350 6.7 102200 64
2008-04-16 08:58:37 51°14.847 2°50.49 5.8 351 6.7 102200 64
2008-04-16 08:58:41 51°14.849 2°50.495 5.5 351 6.6 102200 64
2008-04-16 08:58:47 51°14.851 2°50.503 5.8 353 6.6 102200 64
2008-04-16 08:58:52 51°14.853 2°50.51 5.5 355 6.7 102200 64
2008-04-16 08:58:56 51°14.854 2°50.515 6.4 354 6.7 102200 64
2008-04-16 08:59:01 51°14.856 2°50.522 6.8 355 6.7 102200 64
2008-04-16 08:59:06 51°14.858 2°50.529 6.6 352 6.7 102200 64
2008-04-16 08:59:12 51°14.86 2°50.537 6.8 355 6.7 102190 64
2008-04-16 08:59:17 51°14.862 2°50.544 6.6 356 6.7 102190 64
2008-04-16 08:59:22 51°14.864 2°50.55 6.2 357 6.7 102200 64
2008-04-16 08:59:27 51°14.865 2°50.557 6.4 356 6.7 102200 64
2008-04-16 08:59:32 51°14.867 2°50.564 6.9 356 6.7 102200 64
2008-04-16 08:59:36 51°14.868 2°50.57 6.6 356 6.7 102200 64
2008-04-16 08:59:41 51°14.87 2°50.576 6.5 356 6.7 102200 65
2008-04-16 08:59:47 51°14.873 2°50.584 5.9 354 6.7 102200 65
2008-04-16 08:59:51 51°14.874 2°50.59 6.6 355 6.7 102190 64
2008-04-16 08:59:57 51°14.876 2°50.598 6.6 352 6.7 102190 64
2008-04-16 09:00:02 51°14.878 2°50.605 5.9 352 6.7 102190 64
2008-04-16 09:00:07 51°14.88 2°50.611 7.1 355 6.7 102190 64
2008-04-16 09:00:12 51°14.881 2°50.618 6.2 356 6.7 102190 64
2008-04-16 09:00:17 51°14.883 2°50.625 6.2 356 6.7 102190 64
2008-04-16 09:00:22 51°14.885 2°50.631 6.2 360 6.7 102210 64
2008-04-16 09:00:27 51°14.887 2°50.638 6.7 355 6.7 102210 64
2008-04-16 09:00:32 51°14.889 2°50.645 6.8 359 6.7 102200 65
2008-04-16 09:00:37 51°14.891 2°50.652 6.9 359 6.7 102200 65
2008-04-16 09:00:41 51°14.892 2°50.657 7.2 357 6.7 102200 66
2008-04-16 09:00:47 51°14.894 2°50.666 6.5 358 6.7 102200 66